Location: Hamburg
(53.5500°N, 10.0000°E)
Time: 03:50:35
(UTC+01:00)

Daily predictions for brighter satellites

Satellite Brightness Start Highest point End
(mag) Time Altitude Azimuth Time Altitude Azimuth Time Altitude Azimuth
Cosmos 2219 Rocket 4.5 03:31:19 19° NE 03:31:19 19° NE 03:32:54 10° NE
ATLAS 3B R/B 4.0 03:36:57 34° NNE 03:36:57 34° NNE 03:40:55 10° NE
Cosmos 2333 Rocket 4.2 03:45:43 24° NE 03:45:43 24° NE 03:48:00 10° NE
Cosmos 1943 Rocket 4.2 03:59:44 20° NNE 03:59:44 20° NNE 04:03:35 10° ENE
SL-16 R/B 3.8 04:05:07 29° ESE 04:05:38 30° ESE 04:10:29 10° NE
Lacrosse 5 rocket 4.3 04:12:21 15° ENE 04:12:21 15° ENE 04:13:11 10° ENE
Cosmos 2322 Rocket 4.5 04:16:16 15° N 04:16:16 15° N 04:17:34 10° NNE
ADEOS Rocket 4.4 04:07:33 10° NNE 04:10:04 28° NNE 04:10:04 28° NNE
NOSS 3-2 (A) 4.2 04:15:59 50° NNE 04:15:59 50° NNE 04:21:12 10° NE
COSMOS 2428 4.5 04:17:38 24° NNE 04:17:38 24° NNE 04:19:54 10° NNE
Cosmos 2360 Rocket 4.3 04:18:38 18° NNE 04:18:38 18° NNE 04:20:13 10° NNE
Cosmos 2237 Rocket 3.0 04:37:00 45° NNE 04:37:00 45° NNE 04:40:51 10° NNE
ADEOS II 3.1 04:31:35 10° NNE 04:34:58 39° NE 04:34:58 39° NE
SL-16 R/B 4.3 04:42:52 16° N 04:42:52 16° N 04:44:42 10° NNE
CZ-4B R/B 4.4 04:35:20 10° NNE 04:38:17 33° NNE 04:38:17 33° NNE
Cosmos 2056 Rocket 4.0 04:46:24 56° E 04:46:24 56° E 04:50:45 10° SE
CZ-4C R/B 3.4 04:51:37 36° N 04:51:37 36° N 04:57:54 10° ENE
COSMOS 2455 4.2 04:54:27 26° N 04:54:27 26° N 04:58:32 10° NE
NOSS 0 Rocket 4.0 04:54:18 64° N 04:54:18 64° N 04:59:46 10° NNE
Cosmos 2369 Rocket 2.8 04:55:58 44° N 04:57:20 54° NE 05:02:55 10° SE
Cosmos 1624 Rocket 4.1 05:00:00 73° SE 05:00:00 73° SE 05:04:49 10° SSE
USA 32 4.1 05:03:41 70° SSE 05:03:41 70° SSE 05:08:19 10° S
Cosmos 1371 Rocket 4.3 05:05:17 56° S 05:05:17 56° S 05:09:25 10° SSE
Cosmos 923 Rocket 4.0 05:04:32 82° ESE 05:04:32 82° ESE 05:09:51 10° NNE
CENTAUR R/B 2.6 05:05:01 53° SSW 05:06:42 81° SE 05:13:57 10° NE
COSMO-SKYMED 1 3.2 05:02:55 10° SSE 05:06:23 53° SE 05:06:23 53° SE
Cosmos 2074 Rocket 4.3 05:02:14 10° S 05:08:26 68° E 05:14:40 10° NNE
USA 238 DEB 4.3 05:08:44 40° NNW 05:09:26 41° NNW 05:16:04 10° NE
USA 238 4.3 05:08:49 40° NNW 05:09:31 41° NNW 05:16:09 10° NE
Cosmos 1980 4.1 05:10:48 48° N 05:10:48 48° N 05:15:21 10° NNE
ATLAS 5 CENTAUR R/B 3.3 05:10:36 30° N 05:10:36 30° N 05:15:37 10° ENE
Cosmos 2219 Rocket 3.1 05:13:04 35° N 05:13:04 35° N 05:16:58 10° NNE
SL-08 ROCKET BODY 4.5 05:07:53 10° S 05:13:48 73° E 05:19:40 10° NNE
Meteor 1-20 Rocket 4.3 05:14:34 10° S 05:20:06 74° E 05:25:36 10° NNE
Cosmos 2184 Rocket 4.0 05:17:54 10° S 05:24:04 81° E 05:30:20 10° NNE
ATLAS 3B R/B 3.6 05:24:12 32° NNW 05:26:07 37° N 05:32:30 10° ENE
Cosmos 2333 Rocket 2.8 05:27:44 40° NNW 05:27:44 40° NNW 05:32:22 10° NNE
Lacrosse 4 Rocket 2.8 05:26:26 28° NNE 05:27:22 30° NE 05:31:04 10° E
Cosmos 1300 Rocket 4.4 05:24:59 10° S 05:29:15 50° E 05:33:32 10° NNE
Tiangong 2 4.0 05:31:35 11° SSE 05:31:35 11° SSE 05:32:15 10° SSE
Cosmos 1680 Rocket 3.3 05:30:48 47° SW 05:32:21 80° WNW 05:37:37 10° NNE
CZ-4B R/B 4.0 05:29:54 10° NNE 05:34:23 79° WNW 05:35:13 58° SW
Cosmos 1452 Rocket 3.7 05:32:32 31° NNW 05:35:06 70° ENE 05:40:22 10° SE
Cosmos 2154 Rocket 4.5 05:33:37 10° S 05:39:42 60° E 05:45:48 10° NNE
NOSS 3-2 (C) 4.0 05:38:21 40° NW 05:39:54 46° NNW 05:46:48 10° NE
Meteor 1-14 Rocket 4.3 05:42:02 48° W 05:42:42 50° WNW 05:48:07 10° N
Cosmos 1943 Rocket 2.6 05:41:17 24° NNW 05:44:34 57° NE 05:49:59 10° SE
Cosmos 1709 Rocket 4.4 05:46:05 38° NW 05:46:05 38° NW 05:51:25 10° N
Meteor 1-19 Rocket 4.2 05:39:50 11° NNW 05:45:36 87° WSW 05:51:25 10° S
Lacrosse 5 rocket 1.5 05:48:04 56° NNW 05:48:21 57° N 05:52:41 10° ENE
SL-16 R/B 2.1 05:47:05 35° WSW 05:49:25 63° NW 05:55:05 10° NNE
NOAA 6 3.9 05:44:22 10° NNE 05:49:31 84° WNW 05:54:39 10° SSW
Cosmos 2112 Rocket 3.9 05:48:59 27° SW 05:51:51 67° WNW 05:57:04 10° NNE
Lacrosse 5 3.8 05:50:52 10° S 05:55:11 28° SE 05:59:31 10° ENE
SKYMED 2 3.9 05:51:13 10° S 05:55:02 45° WSW 05:55:02 45° WSW
Meteor 1-11 Rocket 4.1 05:52:34 10° S 05:58:21 69° E 06:04:02 10° NNE
Cosmos 1900 4.2 05:56:34 38° NW 05:58:30 88° SW 06:03:26 10° SE
ADEOS Rocket 4.2 05:53:56 10° N 05:57:00 22° NNW 05:57:00 22° NNW
Helios 1B rocket 3.4 05:55:13 10° SE 05:59:11 46° ENE 06:03:11 10° N
Cosmos 2322 Rocket 4.2 05:58:05 13° NNW 05:59:25 14° N 06:02:13 10° NNE
Meteor 1-25 Rocket 4.3 05:53:48 10° SSW 05:59:31 55° WNW 06:05:14 10° N
COSMOS 2428 4.1 05:59:39 21° NNW 05:59:43 21° NNW 06:04:00 10° NNE
Cosmos 2151 Rocket 3.8 06:00:33 45° W 06:00:46 46° WNW 06:05:06 10° N
Cosmos 2360 Rocket 3.9 06:00:24 15° NNW 06:00:48 16° NNW 06:04:08 10° NNE
Cosmos 1610 Rocket 4.4 05:55:50 10° SSW 06:02:01 78° WNW 06:08:20 10° N
Cosmos 2263 4.1 05:58:45 26° NW 06:02:03 82° WSW 06:07:40 10° SSE
Meteor 1-13 Rocket 4.4 05:57:54 13° NNW 06:03:13 58° W 06:09:02 10° S
Cosmos 1980 Rocket 4.3 06:01:01 11° NNW 06:03:33 14° N 06:06:27 10° NE
NOSS 3-2 (A) 4.3 06:03:23 28° NW 06:06:06 40° N 06:12:54 10° ENE
Cosmos 292 Rocket 4.0 06:09:38 28° WSW 06:11:45 46° WNW 06:16:25 10° NNE
Cosmos 1656 Rocket 4.5 06:07:11 14° NNW 06:11:49 49° NE 06:17:18 10° SE
Meteor 1-23 Rocket 4.1 06:08:48 10° NNW 06:14:24 82° W 06:19:57 10° S
SL-24 DEB 4.2 06:10:32 10° S 06:15:19 74° W 06:20:09 10° N
ADEOS II 3.0 06:11:53 10° N 06:15:55 26° NW 06:15:55 26° NW
Okean-O 3.9 06:15:48 10° N 06:18:19 23° NW 06:18:19 23° NW
YAOGAN 1 4.4 06:15:40 10° NNE 06:19:39 34° E 06:23:36 10° SSE
Cosmos 2237 Rocket 3.1 06:18:52 26° NW 06:19:58 27° NW 06:24:45 10° NNE
CZ-4B R/B 4.5 06:16:45 10° N 06:20:10 21° NW 06:20:10 21° NW
Cosmos 1025 Rocket 3.0 06:18:51 14° NNW 06:22:37 63° W 06:26:56 10° S
SL-23 DEB 4.5 06:21:53 27° SW 06:22:41 30° SSW 06:25:44 10° SE
Cosmos 1602 3.7 06:19:11 10° SSW 06:23:06 60° WNW 06:27:03 10° N
SL-16 R/B 4.2 06:24:44 11° NNW 06:27:16 14° N 06:30:02 10° NNE
Cosmos 1633 2.5 06:23:42 10° SSW 06:27:17 57° WNW 06:30:54 10° N
Cosmos 2056 Rocket 4.5 06:26:48 24° W 06:27:24 25° W 06:31:31 10° SSW
Nadezhda 3 Rocket 4.2 06:21:24 10° NNW 06:27:27 49° W 06:33:32 10° SSW
CSL-04 Rocket 3.7 06:22:10 10° NNE 06:27:47 88° WNW 06:33:19 10° SSW
Meteor 2-4 Rocket 3.7 06:23:05 10° NNW 06:28:27 57° W 06:33:55 10° S
USA 215 3.5 06:22:18 10° ENE 06:28:52 72° SSE 06:35:23 10° SW
CSL-04 Debris 4.2 06:24:47 10° NNE 06:30:17 85° ESE 06:35:47 10° SSW
Cosmos 1420 Rocket 3.9 06:26:13 15° NNW 06:30:38 75° WSW 06:35:51 10° SSE
Okean 2 3.3 06:28:53 10° NNW 06:33:05 75° W 06:37:15 10° S
Cosmos 839 Rocket 4.1 06:31:39 17° NW 06:37:14 71° SW 06:43:22 10° SSE
Okean 1 Rocket 3.2 06:34:05 10° SSW 06:38:20 48° WNW 06:42:35 10° N
Cosmos 2369 Rocket 2.8 06:37:47 19° NW 06:41:13 36° WSW 06:46:22 10° S
COSMOS 2455 4.3 06:37:36 14° NW 06:41:20 23° N 06:46:05 10° ENE
CZ-4C R/B 3.4 06:36:48 16° NW 06:41:39 43° NNE 06:48:36 10° E
Ariane Rocket 3.0 06:37:18 10° N 06:42:17 57° WNW 06:47:13 10° SW
Cosmos 1544 Rocket 4.1 06:38:16 10° S 06:42:35 62° E 06:46:57 10° NNE
IRS-1A Rocket 4.4 06:37:13 10° NNE 06:42:55 86° ESE 06:48:43 10° SSW
Meteor 1-28 Rocket 4.3 06:39:50 10° SSW 06:43:03 25° W 06:44:10 22° WNW
Cosmos 1867 4.4 06:39:06 15° NW 06:43:27 42° NNE 06:48:38 10° ESE
COSMO-SKYMED 1 4.0 06:40:48 10° SW 06:43:36 18° W 06:43:36 18° W
Meteor 1-5 Rocket 4.2 06:40:30 10° S 06:45:50 79° E 06:51:10 10° NNE
Okean 1-7 Rocket 4.5 06:43:44 18° NW 06:46:02 27° W 06:49:45 10° SW
Cosmos 1603 3.7 06:41:31 10° SW 06:47:09 59° NW 06:52:46 10° NNE
Cosmos 1727 Rocket 4.0 06:42:30 10° N 06:48:43 87° E 06:54:55 10° S
CZ-4 R/B 1.3 06:45:40 10° NNE 06:49:42 88° ESE 06:53:38 10° SSW
IDEFIX/ARIANE 42P 2.9 06:47:19 10° NNE 06:52:31 70° ESE 06:57:42 10° S
Cosmos 1340 2.9 06:49:30 11° NNW 06:53:00 48° W 06:56:39 10° S
Cosmos 2341 Rocket 4.0 06:49:45 10° SSW 06:55:56 58° WNW 07:02:07 10° N
SJ-12 3.9 06:51:49 10° NNE 06:56:01 90° NNW 07:00:11 10° SSW
ATLAS 5 CENTAUR R/B 3.2 06:52:10 14° NW 06:56:33 38° NNE 07:02:11 10° E
Cosmos 2219 Rocket 3.8 06:54:48 14° NW 06:57:04 17° NNW 07:00:46 10° NNE
CENTAUR R/B 3.1 06:52:14 13° W 06:58:01 47° NNW 07:05:15 10° NE
Cosmos 1892 Rocket 3.8 06:54:54 10° NNW 06:59:12 48° W 07:03:30 10° SSW
SMAP 3.2 06:55:56 10° NNE 07:00:39 83° ESE 07:05:19 10° SSW
Cosmos 1536 3.3 07:01:10 10° SW 07:04:53 37° WNW 07:08:39 10° N
Lacrosse 4 Rocket 1.6 07:02:49 14° NW 07:06:19 53° WSW 07:10:19 10° SSE
Cosmos 44 3.8 07:01:09 10° SSW 07:06:27 72° SE 07:11:32 10° NE
CZ-2C R/B 2.5 07:05:54 10° NNE 07:11:08 82° WNW 07:16:15 10° SSW
Cosmos 1943 3.2 07:06:48 10° SW 07:12:26 74° NW 07:18:08 10° NNE
Cosmos 2333 Rocket 3.8 07:09:46 12° NW 07:12:49 17° NNW 07:16:30 10° NNE
Cosmos 1484 Rocket 3.5 07:09:17 10° NNE 07:13:00 56° E 07:16:44 10° S
Cosmos 1626 Rocket 3.6 07:09:33 10° NNW 07:14:02 84° W 07:18:28 10° S
MSX 4.2 07:08:54 10° NNE 07:14:41 70° ESE 07:20:24 10° S
Meteor 1-29 3.6 07:14:01 10° SSW 07:17:08 34° W 07:20:17 10° NNW
ATLAS 3B R/B 3.3 07:11:28 10° NW 07:18:21 49° NNE 07:24:53 10° E
Cosmos 864 Rocket 4.5 07:16:34 10° SSW 07:22:43 79° WNW 07:28:57 10° N
Cosmos 1110 Rocket 4.0 07:18:59 10° NNW 07:24:17 80° WSW 07:29:30 10° SSE
Abrixas rocket 4.5 07:22:38 10° SW 07:25:26 25° SSE 07:28:14 10° ESE
Lacrosse 5 rocket 1.7 07:23:48 10° WNW 07:28:02 60° NNE 07:32:30 10° E
Cosmos 1943 Rocket 3.0 07:23:14 10° NW 07:28:04 32° WSW 07:32:52 10° SSW
MOS 1 4.3 07:25:52 10° NNE 07:31:31 70° WNW 07:37:07 10° SSW
Cosmos 1455 Rocket 3.1 07:27:47 10° SSW 07:32:03 59° WNW 07:36:22 10° N
SL-16 R/B 3.4 07:30:23 10° WNW 07:34:41 21° NNW 07:39:00 10° NNE
Helios 1B rocket 3.7 07:31:20 10° SSW 07:34:43 24° W 07:38:08 10° NW
Cosmos 2278 4.3 07:31:27 10° NNW 07:37:02 54° NE 07:42:34 10° SE
Lacrosse 5 2.0 07:32:35 10° WSW 07:37:43 85° SSE 07:42:50 10° ENE
Cosmos 1515 4.3 07:34:48 10° NNW 07:38:23 36° W 07:41:55 10° SSW
